Weather History for Fredericksburg, TX

Change the Weather History Date:

Wednesday, April 10, 2013

  Actual Average (KSAT) Record (KSAT)
Temperature  
Mean Temperature 55 °F 68 °F  
Max Temperature 71 °F 79 °F 95 °F (1963)
Min Temperature 39 °F 57 °F 37 °F (1973)
Degree Days  
Heating Degree Days 10 2  
Month to date heating degree days 22  
Since 1 July heating degree days 1477  
Cooling Degree Days 0 5  
Month to date cooling degree days 41  
Year to date cooling degree days 132  
Growing Degree Days 5 (Base 50)    
Moisture  
Dew Point 46 °F    
Average Humidity 76    
Maximum Humidity 93    
Minimum Humidity 57    
Precipitation  
Precipitation 0.01 in 0.06 in 1.44 in (1978)
Month to date precipitation 0.59  
Year to date precipitation 6.45  
Snow  
Snow 0.00 in - - ()
Month to date snowfall  
Since 1 July snowfall  
Snow Depth -    
Sea Level Pressure  
Sea Level Pressure 29.85 in    
Wind  
Wind Speed 12 mph (North)    
Max Wind Speed 22 mph    
Max Gust Speed 30 mph    
Visibility 10 miles    
Events Rain    
T = Trace of Precipitation, MM = Missing Value Source: NWS Daily Summary

Daily Weather History Graph

Daily Weather History Graph

Search for Another Location

Airport:

Trip Planner

Search our weather history database for the weather conditions in past years. The results will help you decide how hot, cold, wet, or windy it might be!

Date:

Astronomy

Apr. 10, 2013 Rise Set
Actual Time 7:13 AM CDT 8:00 PM CDT
Civil Twilight 6:49 AM CDT 8:24 PM CDT
Nautical Twilight 6:20 AM CDT 8:53 PM CDT
Astronomical Twilight 5:51 AM CDT 9:22 PM CDT
Moon 7:13 AM CDT (4/10) 8:32 PM CDT (4/10)
Length of Visible Light 13h 35m
Length of Day
12h 46m
New Moon, 0% of the Moon is Illuminated
Apr 10
New Moon
Apr 18
First Quarter
Apr 25
Full
May 2
Last Quarter
May 9
New

Hourly Weather History & Observations

Time (CDT) Temp. Windchill Dew Point Humidity Pressure Visibility Wind Dir Wind Speed Gust Speed Precip Events Conditions
12:15 AM 70.5 °F - 64.6 °F 81% 29.65 in 10.0 mi SSE 13.8 mph 24.2 mph N/A   Mostly Cloudy
12:35 AM 70.3 °F - 64.8 °F 82% 29.67 in 10.0 mi ESE 6.9 mph 17.3 mph N/A   Overcast
12:55 AM 70.7 °F - 65.1 °F 82% 29.68 in 7.0 mi ESE 8.1 mph 19.6 mph N/A   Overcast
1:15 AM 70.9 °F - 65.3 °F 82% 29.68 in 7.0 mi SE 10.4 mph 20.7 mph N/A   Overcast
1:35 AM 70.9 °F - 65.3 °F 82% 29.68 in 7.0 mi SE 8.1 mph - N/A   Overcast
1:55 AM 71.1 °F - 64.8 °F 80% 29.68 in 7.0 mi SSE 9.2 mph 20.7 mph N/A   Overcast
2:15 AM 70.9 °F - 64.9 °F 81% 29.68 in 7.0 mi SSE 11.5 mph 17.3 mph N/A   Overcast
2:35 AM 70.9 °F - 64.4 °F 80% 29.68 in 10.0 mi SSE 8.1 mph 24.2 mph N/A   Overcast
2:55 AM 70.9 °F - 63.7 °F 78% 29.68 in 10.0 mi SSE 10.4 mph 20.7 mph N/A   Overcast
3:15 AM 70.9 °F - 63.7 °F 78% 29.71 in 10.0 mi SW 4.6 mph 18.4 mph N/A   Overcast
3:35 AM 70.9 °F - 63.7 °F 78% 29.72 in 10.0 mi SSW 11.5 mph - N/A   Overcast
3:55 AM 70.7 °F - 63.7 °F 78% 29.73 in 10.0 mi SSW 5.8 mph - N/A   Overcast
4:15 AM 70.7 °F - 63.7 °F 78% 29.73 in 10.0 mi SSW 6.9 mph - N/A   Overcast
4:35 AM 70.7 °F - 63.9 °F 79% 29.74 in 10.0 mi SW 4.6 mph - N/A   Overcast
4:55 AM 70.2 °F - 63.9 °F 80% 29.75 in 10.0 mi NW 9.2 mph - N/A   Overcast
5:15 AM 52.9 °F - 42.6 °F 68% 29.76 in 10.0 mi North 19.6 mph 27.6 mph N/A   Overcast
5:35 AM 50.4 °F - 41.2 °F 71% 29.78 in 10.0 mi North 21.9 mph 29.9 mph N/A   Overcast
5:55 AM 48.4 °F - 41.5 °F 77% 29.79 in 10.0 mi North 10.4 mph 20.7 mph N/A   Overcast
6:15 AM 45.7 °F 39.1 °F 40.1 °F 81% 29.81 in 10.0 mi North 15.0 mph 18.4 mph N/A   Overcast
6:35 AM 44.2 °F 37.6 °F 39.2 °F 82% 29.80 in 10.0 mi North 13.8 mph 21.9 mph N/A   Overcast
6:55 AM 43.2 °F 36.6 °F 38.5 °F 84% 29.82 in 10.0 mi North 12.7 mph 20.7 mph N/A   Overcast
7:15 AM 42.8 °F 36.2 °F 38.8 °F 86% 29.84 in 10.0 mi NNW 12.7 mph 21.9 mph N/A   Light Drizzle
7:35 AM 41.7 °F 34.1 °F 39.2 °F 91% 29.86 in 7.0 mi North 15.0 mph 20.7 mph N/A   Heavy Drizzle
7:55 AM 41.0 °F 33.1 °F 39.2 °F 93% 29.87 in 7.0 mi NNW 15.0 mph 20.7 mph 0.01 in Rain Rain
8:15 AM 41.0 °F 32.5 °F 39.0 °F 93% 29.87 in 10.0 mi North 17.3 mph - N/A   Light Drizzle
8:35 AM 40.8 °F 32.6 °F 38.5 °F 91% 29.88 in 10.0 mi NNW 16.1 mph 20.7 mph N/A   Overcast
8:55 AM 40.1 °F 31.0 °F 37.4 °F 90% 29.89 in 10.0 mi NNW 18.4 mph 24.2 mph N/A   Overcast
9:15 AM 39.7 °F 30.6 °F 37.0 °F 90% 29.90 in 10.0 mi North 18.4 mph 24.2 mph N/A   Overcast
9:35 AM 40.3 °F 33.4 °F 37.8 °F 91% 29.91 in 10.0 mi North 11.5 mph 19.6 mph N/A   Overcast
9:55 AM 40.5 °F 31.8 °F 38.1 °F 91% 29.91 in 10.0 mi North 17.3 mph 23.0 mph N/A   Overcast
10:15 AM 41.0 °F 33.5 °F 38.5 °F 91% 29.92 in 10.0 mi NNW 13.8 mph 23.0 mph N/A   Overcast
10:35 AM 41.7 °F 33.7 °F 39.2 °F 91% 29.93 in 10.0 mi NNW 16.1 mph 20.7 mph N/A   Overcast
10:55 AM 42.3 °F 34.1 °F 39.9 °F 91% 29.94 in 10.0 mi NNW 17.3 mph 23.0 mph N/A   Overcast
11:15 AM 43.0 °F 36.0 °F 40.1 °F 90% 29.95 in 10.0 mi NNW 13.8 mph 25.3 mph N/A   Overcast
11:35 AM 41.9 °F 34.3 °F 38.8 °F 89% 29.95 in 10.0 mi NNW 15.0 mph 24.2 mph N/A   Overcast
11:55 AM 42.1 °F 33.9 °F 39.0 °F 89% 29.95 in 10.0 mi NNW 17.3 mph - N/A   Overcast
12:15 PM 42.8 °F 35.8 °F 39.6 °F 88% 29.93 in 10.0 mi North 13.8 mph 24.2 mph N/A   Overcast
12:35 PM 43.9 °F 36.8 °F 39.7 °F 85% 29.93 in 10.0 mi North 15.0 mph 23.0 mph N/A   Overcast
12:55 PM 45.1 °F 37.9 °F 40.1 °F 82% 29.93 in 10.0 mi North 17.3 mph - N/A   Overcast
1:15 PM 46.2 °F 40.1 °F 40.5 °F 80% 29.92 in 10.0 mi NNW 13.8 mph 18.4 mph N/A   Overcast
1:35 PM 47.8 °F - 40.6 °F 76% 29.92 in 10.0 mi North 13.8 mph - N/A   Overcast
1:55 PM 49.3 °F - 41.4 °F 74% 29.91 in 10.0 mi North 17.3 mph 20.7 mph N/A   Overcast
2:15 PM 50.5 °F - 41.7 °F 72% 29.90 in 10.0 mi NNE 12.7 mph 18.4 mph N/A   Overcast
2:35 PM 52.5 °F - 42.6 °F 69% 29.89 in 10.0 mi North 16.1 mph - N/A   Overcast
2:55 PM 53.8 °F - 42.8 °F 66% 29.89 in 10.0 mi North 15.0 mph 18.4 mph N/A   Overcast
3:15 PM 54.1 °F - 42.8 °F 66% 29.89 in 10.0 mi North 12.7 mph 18.4 mph N/A   Overcast
3:35 PM 55.0 °F - 42.8 °F 63% 29.89 in 10.0 mi North 16.1 mph 20.7 mph N/A   Overcast
3:55 PM 57.0 °F - 43.9 °F 61% 29.88 in 10.0 mi North 12.7 mph 18.4 mph N/A   Mostly Cloudy
4:15 PM 57.4 °F - 43.2 °F 59% 29.86 in 10.0 mi North 17.3 mph 21.9 mph N/A   Scattered Clouds
4:35 PM 58.6 °F - 43.5 °F 57% 29.85 in 10.0 mi North 16.1 mph - N/A   Scattered Clouds
4:55 PM 57.6 °F - 42.8 °F 58% 29.85 in 10.0 mi North 13.8 mph - N/A   Scattered Clouds
5:15 PM 57.7 °F - 42.4 °F 57% 29.84 in 10.0 mi North 18.4 mph 25.3 mph N/A   Clear
5:35 PM 57.7 °F - 42.6 °F 57% 29.86 in 10.0 mi North 11.5 mph 19.6 mph N/A   Scattered Clouds
5:55 PM 58.3 °F - 43.0 °F 57% 29.86 in 10.0 mi NNE 12.7 mph 17.3 mph N/A   Clear
6:15 PM 57.7 °F - 42.4 °F 57% 29.87 in 10.0 mi North 16.1 mph 20.7 mph N/A   Clear
6:35 PM 57.7 °F - 42.6 °F 57% 29.87 in 10.0 mi North 12.7 mph 19.6 mph N/A   Clear
6:55 PM 56.7 °F - 42.1 °F 58% 29.87 in 10.0 mi North 13.8 mph 24.2 mph N/A   Clear
7:15 PM 55.8 °F - 41.9 °F 60% 29.86 in 10.0 mi NNE 10.4 mph 19.6 mph N/A   Clear
7:35 PM 54.7 °F - 42.1 °F 62% 29.87 in 10.0 mi NNE 10.4 mph - N/A   Clear
7:55 PM 53.4 °F - 41.2 °F 63% 29.87 in 10.0 mi North 17.3 mph 21.9 mph N/A   Clear
8:15 PM 52.3 °F - 41.2 °F 66% 29.88 in 10.0 mi North 11.5 mph - N/A   Clear
8:35 PM 50.9 °F - 41.0 °F 69% 29.89 in 10.0 mi North 5.8 mph - N/A   Clear
8:55 PM 50.2 °F - 41.0 °F 71% 29.90 in 10.0 mi North 8.1 mph - N/A   Clear
9:15 PM 48.7 °F - 40.8 °F 74% 29.91 in 10.0 mi NNE 6.9 mph - N/A   Clear
9:35 PM 48.6 °F - 40.5 °F 74% 29.92 in 10.0 mi NNE 8.1 mph - N/A   Clear
9:55 PM 47.8 °F - 39.9 °F 74% 29.94 in 10.0 mi NNE 5.8 mph - N/A   Clear
10:15 PM 47.3 °F - 39.7 °F 75% 29.94 in 10.0 mi North 8.1 mph - N/A   Clear
10:35 PM 46.2 °F 42.7 °F 39.6 °F 78% 29.93 in 10.0 mi NNE 6.9 mph - N/A   Clear
10:55 PM 46.6 °F - 39.6 °F 77% 29.96 in 10.0 mi North 5.8 mph - N/A   Clear
11:15 PM 46.4 °F 42.4 °F 39.6 °F 77% 29.96 in 10.0 mi North 8.1 mph - N/A   Clear
11:35 PM 46.6 °F - 38.7 °F 74% 29.97 in 10.0 mi NNE 8.1 mph 11.5 mph N/A   Clear
11:55 PM 46.4 °F 42.4 °F 38.3 °F 73% 29.96 in 10.0 mi NNE 8.1 mph - N/A   Clear